User: anonymous   Login
Location: Jasper Marmot Meadows
(52.8392°N, 118.0718°W)
Time: 02:32:01
(UTC-07:00)
Language:

N. Korean satellite - Orbit

View from above orbital plane
View from above orbital plane
View from above satellite
View from above satellite

Ground track
Ground track

The orbit data is extracted from the following two-line orbital elements,

1 39026U 12072A   19047.95949863 +.00001187 +00000-0 +45940-4 0  9999
2 39026 097.2108 055.0849 0038681 171.3742 188.8171 15.27458498342951
Epoch (UTC): 16 February 2019 23:01:40
Eccentricity: 0.0038681
inclination: 97.2108°
perigee height: 457 km
apogee height: 510 km
right ascension of ascending node: 55.0849°
argument of perigee: 171.3742°
revolutions per day: 15.27458498
mean anomaly at epoch: 188.8171°
orbit number at epoch: 34295

The dashed part of the orbit path shows where the satellite is in the earth's shadow,  

DLR